Miscellaneous Local Product
Issued by NWS Hastings, NE

Home | Current Version | Previous Version | Text Only | Print | Product List | Glossary Off
Versions: 1 2 3 4 5 6 7 8 9 10 11 12 13 14 15 16 17 18 19 20 21 22 23 24 25 26 27 28 29 30 31 32 33 34 35 36 37 38 39 40 41 42 43 44 45 46 47 48 49 50

997
AXUS43 KGID 112302
MISGRI

GID CWA HOURLY WEATHER ROUNDUP
NATIONAL WEATHER SERVICE HASTINGS NE
500 PM CST THU FEB 11 2016

NOTE: "FAIR" INDICATES FEW OR NO CLOUDS BELOW 12,000 FEET WITH NO
SIGNIFICANT WEATHER AND/OR OBSTRUCTIONS TO VISIBILITY.

...SOUTH CENTRAL NEBRASKA...

CITY           SKY/WX    TMP DP  RH WIND       PRES   REMARKS
GRAND ISLAND   CLOUDY    30  26  85 SW12      30.10R WCI  20
HASTINGS       CLOUDY    31  26  82 SW7       30.09S WCI  24
KEARNEY        CLOUDY    34  28  80 SW12      30.08S WCI  25
ORD            SUNNY     35  30  82 S8        30.03F WCI  29
YORK           CLOUDY    28  27  93 SW9       30.13R WCI  20
AURORA         CLOUDY    30  27  89 SW9       30.10S WCI  22
LEXINGTON      SUNNY     40  32  71 SW6       30.06S
HOLDREGE       MOSUNNY   35  31  83 SW9       30.07F WCI  28
HEBRON         CLOUDY    29  26  87 SW7       30.13R FOG     WCI  22

...NEBRASKA PANHANDLE...

CITY           SKY/WX    TMP DP  RH WIND       PRES   REMARKS
CHADRON        SUNNY     56  26  31 NW20G28   30.09R
ALLIANCE       CLOUDY    48  34  58 NW9       30.09R
SCOTTSBLUFF    CLOUDY    56  26  31 NW24G32   30.12R
SIDNEY         CLOUDY    50  33  52 NW8       30.12R

...WESTERN AND NORTH CENTRAL NEBRASKA...

CITY           SKY/WX    TMP DP  RH WIND       PRES   REMARKS
VALENTINE      MOSUNNY   45  32  60 N15G25    30.02R
AINSWORTH      MOSUNNY   49  32  52 N14G22    30.01R
ONEILL         CLOUDY    33  31  92 SE8       30.03R FOG     WCI  25
BROKEN BOW     CLOUDY    40  32  73 S6        30.03R
IMPERIAL       CLOUDY    52  33  48 NW12      30.08R
NORTH PLATTE   SUNNY     53  34  48 CALM      30.04R
MCCOOK         CLOUDY    48  32  53 N3        30.07R

...EASTERN NEBRASKA...

CITY           SKY/WX    TMP DP  RH WIND       PRES   REMARKS
NORFOLK        CLOUDY    26  21  81 SE10      30.11R WCI  16
SO SIOUX CITY  CLOUDY    20  12  71 SE9       30.19R WCI   9
TEKAMAH        CLOUDY    21  14  74 SE8       30.20R WCI  11
COLUMBUS       CLOUDY    28  16  59 S10       30.13F WCI  19
ALBION         CLOUDY    30  26  86 S12       30.06F WCI  20
OMAHA EPPLEY   CLOUDY    27  19  72 E3        30.18F
OFFUTT AFB     CLOUDY    30  21  68 SE7       30.17S WCI  24
MILLARD        CLOUDY    30  22  71 SE5       30.17F WCI  25
LINCOLN        CLOUDY    28  23  81 S8        30.18R WCI  20
NEBRASKA CITY  MOCLDY    33  22  65 S8        30.16F WCI  25
BEATRICE       MOCLDY    31  24  74 S9        30.14R WCI  23
FALLS CITY     CLOUDY    35  22  58 S10       30.17S WCI  27

...NORTHERN KANSAS...

CITY           SKY/WX    TMP DP  RH WIND       PRES   REMARKS
GOODLAND       CLOUDY    54  30  40 N10       30.11R
HILL CITY      SUNNY     53  36  52 CALM      30.07S
NORTON         CLEAR     43  30  61 CALM      30.08R
SMITH CENTER   SUNNY     36  28  75 CALM      30.12R
BELOIT         SUNNY     34  27  75 S3        30.15R
HAYS           SUNNY     52  28  40 S8        30.09R
RUSSELL        SUNNY     43  32  65 SE13      30.08F
CONCORDIA      MOSUNNY   32  25  75 S12       30.14R WCI  23
SALINA         SUNNY     44  26  49 S5        30.14F
TOPEKA         CLOUDY    40  21  46 SE6       30.19F



USA.gov is the U.S. government's official web portal to all federal, state and local government web resources and services.